Retour au catalogue

COSMOS 1712

GLONASS

ActifNavigationMEO
NORAD 16398·PAYLOAD·🇷🇺 Russia

Lancé Dec 24, 1985 depuis Baikonur Cosmodrome

Loading…

Prochains Passages (prochaines 24 heures)

TLE

FraisSource: Space-Track

Époque: Sep 11, 2026, 08:11 UTC

1 16398U 85118C   26254.34112103 -.00000055  00000-0  00000-0 0  9995
2 16398  66.0136 322.2020 0010181  11.3263 349.7023  2.12919766315885

Suivez COSMOS 1712 en temps réel avec AllMySat

Download on the App Store